Wind_Speed
33 31 31 31 30 29 29 27 26 24 23 21 20 19 19 18 17 16 16 17 17 17 17 15 14 13 13 12 11 11 10 10 11 11 12 12 12 12 12 12 13 13 14 14
34 33 32 32 32 32 31 29 27 26 23 21 21 20 19 18 18 17 17 17 18 17 16 15 15 14 13 13 12 12 12 12 12 12 12 13 13 13 13 13 13 14 15 15
35 33 33 34 33 33 33 31 29 27 25 23 21 20 19 19 18 18 17 18 18 17 17 17 16 15 14 14 13 14 13 13 13 13 13 14 14 14 14 14 15 16 16 17
34 34 35 34 33 33 34 33 32 30 27 25 23 21 20 19 19 19 19 19 19 19 19 19 18 17 16 15 15 16 16 15 15 16 15 15 15 15 15 16 16 17 18 17
36 36 37 36 34 33 33 33 32 31 29 27 25 24 22 20 20 20 21 22 22 22 22 21 19 19 18 18 17 18 18 17 16 17 17 17 17 17 17 17 17 17 17 17
37 37 38 36 35 34 34 34 32 31 30 29 27 26 23 22 22 22 22 23 23 23 23 21 20 21 20 19 19 20 19 18 18 18 18 19 19 19 18 18 18 18 18 17
39 38 38 36 35 34 35 34 33 32 31 30 29 27 26 25 25 24 23 23 23 23 23 22 22 22 21 21 21 20 20 20 20 20 20 20 20 20 19 19 19 19 19 18
40 40 39 37 35 35 35 34 34 32 31 30 29 29 28 27 27 26 26 26 25 24 24 23 23 23 22 22 22 22 21 21 21 21 21 20 20 20 20 20 20 20 20 20
42 41 40 38 37 36 35 34 34 33 32 31 30 30 29 29 30 30 29 28 27 27 26 26 25 24 24 24 24 25 24 23 23 22 22 21 21 21 21 22 22 22 22 22
42 42 41 39 38 36 35 35 35 34 33 32 32 32 32 32 32 33 32 30 29 30 29 28 28 27 27 27 27 26 26 25 25 24 24 24 24 23 23 24 24 24 24 24
42 42 41 40 39 37 36 35 35 35 35 35 34 34 33 34 34 35 33 33 31 30 30 30 30 29 29 28 28 28 27 27 26 26 25 25 25 25 25 26 25 26 26 27
42 42 42 41 40 39 37 36 35 35 36 36 36 36 34 34 36 37 36 35 33 32 32 31 31 31 31 30 30 30 29 28 28 27 27 27 27 27 27 27 27 27 28 28
41 41 41 41 40 40 39 37 36 36 36 37 38 38 38 37 37 37 37 36 35 34 34 34 33 33 33 32 31 31 30 30 29 29 29 29 28 28 28 28 28 29 29 30
40 40 40 40 39 38 39 38 38 37 38 38 39 39 39 39 39 39 39 38 38 37 36 36 35 34 34 33 33 32 32 31 31 31 30 30 29 29 29 30 30 31 31 32
39 40 39 38 38 38 38 38 38 38 38 38 38 37 38 39 39 39 39 38 38 38 37 37 36 36 36 35 34 34 33 33 33 32 31 31 30 31 31 31 31 31 32 33
38 38 38 38 37 37 37 37 37 38 38 38 38 39 38 38 38 38 37 37 37 37 37 37 37 37 36 36 35 34 33 33 33 33 32 32 32 32 32 33 33 33 34 34
36 37 37 37 37 36 35 35 35 35 36 37 37 38 38 37 37 37 37 37 38 37 37 37 37 37 36 36 35 34 34 34 34 34 34 34 34 34 34 34 35 35 35 35
34 34 35 35 35 35 34 34 34 34 34 35 36 36 37 37 37 37 36 37 37 37 37 38 38 37 36 35 35 35 35 34 35 35 35 35 36 36 36 36 36 36 36 36
32 32 33 33 33 34 33 33 33 33 33 33 33 33 34 35 35 35 35 36 36 36 36 37 36 35 35 35 35 35 36 36 36 36 36 36 36 36 36 36 37 37 36 36
28 29 30 31 31 31 31 32 33 33 33 33 33 33 33 33 34 34 34 34 34 35 35 35 35 35 34 35 35 35 35 35 35 36 36 36 36 36 36 37 38 36 35 35
25 26 27 28 29 29 30 31 31 32 32 32 32 32 32 32 33 33 33 33 33 34 34 34 34 34 34 34 35 35 35 35 35 35 34 35 36 35 35 36 35 34 33 33
23 24 25 26 27 28 28 29 29 29 30 30 31 31 31 31 31 31 32 32 32 32 32 32 32 32 32 32 31 32 33 34 34 33 33 34 34 34 34 34 33 32 32 32
22 23 23 24 25 25 26 26 26 26 27 28 28 28 29 29 29 29 29 30 30 30 31 31 31 31 31 31 31 31 31 31 31 31 31 31 32 32 32 32 31 31 31 31
20 21 22 22 23 23 24 24 24 24 24 24 24 25 25 25 25 26 27 28 28 28 29 29 29 29 29 29 28 28 28 28 28 28 29 30 30 30 30 30 30 30 30 30
16 17 18 19 19 20 20 21 21 21 21 21 21 22 22 23 23 24 24 25 26 26 27 27 26 26 26 25 25 25 25 26 26 27 27 27 26 27 27 28 28 29 29 30
14 14 15 15 16 17 17 18 19 19 19 19 19 20 21 21 21 22 23 23 23 24 23 23 23 23 23 23 23 23 24 24 25 25 25 25 25 26 26 27 27 27 28 28
11 11 12 12 13 13 14 15 15 16 17 17 18 18 19 19 19 19 19 19 19 19 19 20 20 21 21 21 21 22 22 23 23 23 24 24 25 25 26 26 26 27 27 28
Wind_Direction
228 229 232 236 238 241 245 250 255 261 264 265 268 271 274 278 283 289 297 304 308 316 321 321 320 320 320 322 322 322 317 310 307 303 303 305 304 299 295 296 291 285 285 285
230 230 233 235 237 240 243 248 253 257 263 267 269 270 271 275 280 285 294 299 304 309 313 314 315 315 313 313 315 318 318 310 306 305 303 302 303 302 299 297 296 293 292 290
233 232 234 235 237 240 242 246 251 256 262 267 270 269 270 272 275 281 289 292 298 300 303 306 305 304 302 301 305 309 311 309 306 304 303 300 300 301 299 297 295 294 294 290
235 234 236 238 238 242 245 247 251 255 260 266 268 265 266 269 271 277 285 289 293 296 297 299 298 296 296 297 301 304 304 303 302 301 299 297 297 299 298 296 295 294 293 292
236 237 239 240 240 242 245 248 251 254 257 262 264 264 266 269 271 276 281 286 291 292 291 291 291 296 298 298 298 299 298 298 297 298 297 297 298 297 296 295 294 295 298 293
238 240 240 241 242 243 246 250 251 254 257 258 261 262 264 266 270 274 278 282 288 292 288 286 287 293 296 297 297 297 294 295 295 296 295 294 294 294 295 295 295 297 298 295
239 241 242 243 244 245 248 251 253 255 256 256 258 259 260 263 267 270 273 278 284 288 288 286 287 290 290 292 294 295 291 290 292 293 292 291 291 291 293 293 295 296 298 296
238 241 243 243 246 247 250 252 254 255 255 255 255 256 257 259 263 267 269 273 279 284 285 285 288 288 287 289 292 294 294 292 290 291 291 290 290 290 291 292 293 293 293 295
239 241 243 243 246 248 250 252 253 255 254 253 253 254 253 256 259 262 267 270 273 279 283 285 289 289 289 289 291 294 295 295 293 289 289 288 289 290 291 291 291 291 292 293
241 242 243 243 244 246 249 251 252 254 254 253 253 253 253 255 259 262 264 267 271 276 281 285 288 289 291 292 290 292 294 294 294 292 292 292 292 291 292 293 291 292 293 293
240 241 243 244 244 245 248 249 251 252 253 253 255 256 256 256 259 261 262 266 270 273 279 283 285 287 289 290 288 290 291 292 292 290 291 292 294 294 295 295 293 291 292 293
239 241 243 244 244 245 247 248 249 250 252 252 253 254 255 256 259 260 261 265 268 272 276 280 283 285 286 287 287 287 288 288 289 289 288 289 291 292 294 294 292 291 291 293
239 240 241 243 244 246 248 248 248 249 251 253 253 255 257 258 259 262 264 266 267 270 274 278 281 284 283 283 283 284 285 285 286 287 289 288 289 290 292 293 292 290 291 293
238 239 241 242 244 245 246 248 248 248 250 252 253 254 256 258 261 263 265 266 268 270 273 276 279 281 282 282 282 282 283 284 284 285 287 288 288 289 290 291 291 290 291 292
239 240 242 243 244 244 246 247 248 248 249 252 253 256 258 259 262 264 265 265 268 270 273 275 278 279 281 281 282 282 281 282 283 283 284 285 286 288 289 289 289 289 290 292
241 242 242 243 244 246 247 248 249 249 249 251 254 256 259 260 262 264 265 266 268 270 273 275 277 279 280 279 280 280 280 282 282 283 283 283 284 285 287 287 288 288 290 292
241 242 243 244 246 248 247 248 251 251 253 254 256 257 259 261 262 263 264 267 269 270 272 274 276 276 277 277 278 278 279 280 280 281 281 282 284 285 285 286 287 288 289 290
241 242 244 246 247 248 251 251 251 253 253 255 256 258 259 260 262 263 265 268 271 271 272 275 276 275 275 275 274 275 276 278 280 280 280 281 282 283 284 285 286 287 287 289
242 243 244 247 248 250 252 252 253 254 255 255 256 258 260 260 262 264 267 268 271 272 274 275 274 273 274 274 274 274 275 276 277 279 279 280 281 283 283 284 286 287 287 288
243 244 246 248 250 252 253 254 255 256 256 255 257 259 261 262 263 266 268 269 270 271 272 273 273 274 274 274 273 274 274 275 276 277 278 280 280 281 284 286 286 287 288 288
243 245 247 249 251 253 255 257 257 258 257 256 258 260 261 262 264 264 265 267 268 269 271 271 273 274 275 275 275 274 274 275 277 277 279 280 280 281 284 286 286 287 289 290
246 247 249 250 252 254 256 257 257 257 257 257 258 259 260 260 262 263 265 267 267 268 270 271 272 274 276 277 276 274 275 276 277 279 280 281 282 283 284 285 286 287 288 289
248 249 249 250 251 253 255 255 255 256 256 257 258 258 259 260 261 264 266 267 269 270 270 271 272 274 276 278 278 277 277 277 278 279 280 281 282 283 284 284 285 286 287 289
250 250 250 250 250 251 251 252 253 254 256 257 258 258 259 261 263 264 266 268 270 271 272 273 273 275 277 278 278 279 278 279 279 280 281 281 282 283 285 286 286 287 288 289
249 249 247 247 247 248 249 249 251 253 256 258 260 261 262 263 265 267 269 270 271 272 274 274 273 275 276 277 278 278 278 279 279 280 281 281 282 285 288 289 289 288 289 289
246 247 247 247 247 246 245 247 250 253 256 258 260 262 264 267 268 269 271 271 272 273 274 274 273 275 278 278 278 280 280 281 282 283 284 285 287 288 289 288 289 289 290 292
241 242 242 242 244 244 244 247 251 254 256 258 259 261 262 265 268 270 271 271 271 272 273 275 277 278 279 280 281 281 283 284 285 286 287 288 289 291 293 293 293 294 294 295
Height
5867 5871 5874 5877 5880 5883 5885 5888 5890 5892 5894 5896 5897 5898 5899 5899 5899 5899 5898 5898 5896 5895 5893 5891 5890 5888 5887 5885 5884 5882 5881 5880 5879 5878 5877 5875 5874 5873 5872 5871 5870 5869 5868 5867
5861 5865 5868 5871 5874 5877 5880 5882 5885 5887 5890 5892 5892 5893 5894 5895 5895 5895 5895 5894 5893 5892 5891 5890 5888 5886 5885 5883 5882 5880 5879 5878 5876 5875 5874 5873 5871 5870 5869 5868 5867 5866 5865 5863
5854 5859 5861 5864 5868 5871 5874 5876 5879 5882 5885 5886 5888 5889 5890 5891 5891 5891 5891 5890 5889 5889 5888 5887 5885 5884 5882 5881 5879 5877 5876 5875 5873 5872 5871 5869 5868 5867 5865 5864 5863 5862 5860 5859
5847 5852 5854 5860 5862 5865 5868 5870 5873 5876 5879 5881 5883 5884 5885 5886 5886 5886 5886 5885 5885 5884 5883 5882 5881 5880 5879 5877 5876 5874 5873 5871 5870 5868 5867 5866 5864 5863 5862 5861 5859 5857 5856 5854
5839 5843 5847 5851 5855 5858 5861 5864 5867 5870 5873 5875 5877 5878 5880 5881 5881 5881 5881 5881 5880 5879 5878 5878 5877 5876 5874 5873 5872 5870 5868 5866 5865 5864 5863 5861 5860 5859 5857 5856 5855 5853 5851 5850
5832 5835 5839 5845 5848 5851 5855 5857 5860 5863 5866 5869 5871 5873 5875 5875 5876 5876 5876 5876 5875 5874 5873 5872 5872 5871 5870 5869 5867 5865 5863 5862 5860 5859 5858 5857 5856 5854 5853 5852 5850 5848 5847 5845
5824 5827 5832 5837 5840 5845 5849 5851 5853 5856 5859 5861 5864 5866 5868 5868 5870 5870 5870 5870 5870 5869 5868 5868 5867 5866 5865 5864 5862 5860 5858 5857 5856 5854 5853 5852 5850 5849 5848 5847 5845 5844 5842 5840
5816 5820 5826 5829 5833 5837 5840 5843 5845 5848 5851 5854 5856 5858 5859 5861 5863 5863 5863 5863 5864 5863 5863 5862 5861 5861 5859 5858 5857 5855 5853 5852 5850 5849 5847 5846 5845 5844 5843 5841 5840 5839 5837 5835
5808 5813 5817 5821 5825 5829 5832 5835 5837 5840 5843 5846 5848 5850 5852 5853 5855 5856 5856 5856 5857 5857 5856 5855 5855 5854 5853 5852 5851 5849 5848 5846 5844 5843 5842 5841 5839 5838 5837 5835 5834 5833 5831 5830
5799 5803 5808 5812 5816 5820 5824 5827 5830 5832 5835 5838 5840 5842 5843 5845 5846 5847 5848 5849 5849 5850 5850 5849 5849 5848 5847 5846 5845 5844 5842 5841 5840 5838 5837 5835 5833 5831 5830 5829 5828 5827 5825 5823
5789 5794 5799 5803 5807 5811 5815 5818 5821 5824 5826 5829 5831 5833 5835 5836 5837 5838 5839 5840 5841 5842 5842 5842 5841 5841 5840 5839 5838 5837 5835 5834 5833 5832 5830 5828 5827 5825 5824 5823 5821 5820 5818 5816
5781 5786 5790 5794 5798 5802 5806 5809 5812 5815 5817 5820 5822 5824 5826 5827 5828 5830 5831 5832 5833 5834 5834 5834 5833 5833 5832 5831 5830 5829 5828 5827 5826 5824 5823 5821 5820 5818 5817 5815 5814 5812 5810 5808
5772 5776 5780 5784 5789 5793 5796 5800 5803 5806 5808 5811 5813 5815 5817 5818 5820 5821 5822 5823 5824 5825 5825 5825 5825 5824 5823 5823 5822 5821 5820 5819 5818 5817 5816 5814 5812 5811 5809 5807 5805 5804 5802 5800
5763 5767 5771 5775 5780 5784 5787 5790 5793 5796 5799 5801 5804 5806 5807 5809 5810 5811 5812 5813 5814 5815 5816 5816 5816 5815 5814 5813 5813 5812 5811 5810 5809 5808 5807 5806 5804 5802 5801 5799 5797 5795 5793 5791
5754 5758 5762 5766 5770 5774 5778 5781 5784 5786 5789 5792 5794 5796 5798 5799 5800 5801 5802 5803 5804 5805 5805 5806 5806 5806 5805 5804 5803 5802 5802 5801 5800 5799 5798 5797 5795 5793 5792 5790 5788 5786 5784 5782
5745 5749 5753 5758 5762 5765 5769 5772 5774 5776 5779 5781 5784 5786 5787 5789 5790 5791 5792 5793 5794 5794 5795 5795 5795 5795 5795 5794 5793 5793 5792 5791 5790 5789 5788 5787 5785 5784 5782 5781 5779 5777 5775 5772
5737 5741 5745 5749 5753 5756 5759 5762 5765 5767 5769 5771 5773 5775 5777 5779 5780 5781 5782 5783 5784 5784 5784 5784 5784 5784 5784 5784 5783 5782 5782 5781 5780 5779 5778 5777 5775 5774 5772 5771 5769 5766 5764 5762
5730 5733 5737 5741 5744 5747 5750 5752 5755 5758 5760 5762 5763 5765 5767 5768 5770 5771 5771 5772 5772 5772 5773 5773 5773 5773 5772 5773 5772 5772 5771 5771 5770 5769 5768 5766 5765 5763 5762 5760 5758 5756 5754 5751
5722 5725 5729 5732 5735 5738 5741 5743 5746 5748 5750 5751 5754 5755 5757 5758 5759 5760 5761 5762 5762 5762 5762 5762 5762 5762 5762 5761 5761 5760 5760 5759 5759 5758 5757 5755 5754 5752 5751 5749 5747 5745 5743 5740
5715 5718 5721 5724 5727 5730 5733 5735 5737 5739 5741 5743 5744 5746 5747 5748 5749 5750 5751 5751 5752 5752 5752 5752 5751 5751 5751 5750 5750 5749 5749 5748 5748 5747 5746 5745 5743 5742 5740 5738 5736 5734 5732 5730
5709 5712 5714 5717 5719 5722 5724 5726 5728 5730 5732 5734 5735 5737 5738 5739 5740 5740 5741 5742 5742 5742 5742 5742 5741 5741 5741 5740 5739 5738 5738 5737 5737 5736 5736 5734 5733 5731 5729 5728 5726 5724 5722 5719
5703 5705 5708 5710 5712 5714 5716 5718 5720 5721 5723 5724 5726 5727 5728 5729 5730 5731 5731 5732 5732 5732 5732 5732 5731 5731 5731 5730 5728 5727 5727 5727 5726 5726 5725 5724 5722 5721 5719 5717 5715 5714 5712 5710
5697 5699 5701 5703 5705 5706 5708 5710 5711 5713 5714 5716 5717 5718 5719 5720 5721 5722 5723 5723 5723 5723 5722 5722 5722 5722 5721 5721 5720 5719 5718 5717 5717 5716 5715 5714 5712 5711 5709 5708 5706 5704 5702 5700
5691 5692 5694 5696 5697 5699 5701 5702 5704 5705 5707 5708 5709 5710 5711 5712 5713 5713 5714 5714 5714 5714 5714 5714 5713 5713 5713 5712 5711 5710 5709 5708 5708 5707 5705 5704 5703 5701 5700 5698 5696 5694 5693 5691
5685 5686 5688 5689 5691 5693 5694 5696 5697 5698 5700 5701 5702 5703 5704 5705 5705 5706 5706 5706 5706 5706 5706 5705 5705 5705 5704 5703 5703 5702 5701 5700 5699 5698 5697 5695 5694 5693 5691 5689 5687 5685 5684 5682
5681 5682 5683 5684 5686 5687 5689 5690 5691 5693 5694 5695 5696 5697 5697 5698 5698 5699 5699 5699 5699 5699 5698 5698 5698 5697 5697 5696 5695 5694 5694 5693 5691 5690 5689 5687 5686 5684 5683 5681 5679 5677 5675 5673
5677 5678 5679 5680 5682 5683 5684 5685 5687 5688 5689 5689 5690 5691 5691 5692 5692 5692 5692 5692 5692 5692 5692 5691 5691 5691 5690 5689 5689 5687 5686 5685 5684 5683 5681 5680 5678 5676 5675 5673 5671 5669 5667 5664